Showing default

RASSVET-3 1, 68360

Orbit data source: Space-Track

RASSVET-3 1, 68360 is a payload satellite owned by Byuro 1440 (CIS) in LEO that was launched on Mon, 23 Mar 2026 UTC via a SOYUZ-2-1B launch vehicle from the Plesetsk Missile And Space Complex (PKMTR). Payload-class satellites include a variety of spacecraft equipped with specific instruments for various scientific and technological missions. These include communications satellites like Starlink; space stations such as the ISS; scientific satellites like the Hubble; Earth observation satellites from companies like Planet Labs, Umbra, and HawkEye 360; GPS; miniature CubeSats for education and research; and military/defense satellites.

Loading next visibility...
Identifier
68360, 2026-061A
Orbit
LEO
Country
Flag of CISCIS
Related business
Manufacturer
Byuro 1440
Mission
Operational spacecraft
Bus & Motor
RASSVET-2, Unknown motor
Mass
~370 kg wet, ~370 kg dry
Launch date (UTC)
2026-03-23 (3 months ago)
Launch vehicle
SOYUZ-2-1B
Launch site
Plesetsk Missile And Space Complex (PKMTR)
Object type
Payload
Rocket body
Debris
Shape & HBR
Unknown shape, 1.8 m
Radar Cross Section
Large (>1 m²)

Expand to show TLE details & history
Last TLE update: 22 hours ago

TLE from 22 hours ago
0 RASSVET-3 1
1 68360U 26061A   26169.25388147 -.00519311  00000-0 -76413-2 0  9995
2 68360  82.2908  11.2176 0008902 183.6394 176.4797 15.57093139 13711
Epoch: 2026-06-18T06:05Z
TLE epoch observation values (Epoch: 2026-06-18T06:05:35.359Z)
Latitude
-0.00008°
Longitude
13.32041°
Altitude
405.227 km
Speed
7.664 km/s
True Right ascension
00h 44m 52s
True Declination
0° 00' 00"
Sunlit
Object was in daylight at epoch
Visualization orbit readout
Latitude
Unknown
Longitude
Unknown
Altitude
Unknown
Speed
Unknown
Apparent Right ascension
Unknown
Apparent Declination
Unknown
Sunlit
N/A
Visualization observer readout
Local Sidereal Time
15:04:39
Azimuth
Unknown
Elevation
Unknown
Doppler factor
Unknown
Orbital elements
Apogee altitude
399.033 km
Perigee altitude
386.977 km
Semi-major axis
6,771.142 km
Eccentricity
0.00089
Inclination
82.2908°
RAAN
11.2176°
Arg. of periapsis
183.6394°
True anomaly
176.48596°
Mean anomaly
176.4797°
Eccentric anomaly
176.48283°
Mean motion
3.89538 °/min
Orbital period
92.42 mins
BSTAR
-0.0076413
Loading maneuver chart data...
Computing Atmospheric mass density...
Loading historical data...
Loading historical data...
Loading historical data...
Loading historical data...
Loading historical data...
Loading historical data...
Loading historical data...

Documentation

Showing up to 5 results
|